Regional Weather Roundup
Issued by NWS

Home | Current Version | Previous Version | Text Only | Print | Product List | Glossary On
Versions: 1 2 3 4 5 6 7 8 9 10 11 12 13 14 15 16 17 18 19 20 21 22 23 24 25 26 27 28
000
ASUS45 KPSR 300710
RWRAZ

ARIZONA HOURLY REGIONAL WEATHER ROUNDUP
NATIONAL WEATHER SERVICE PHOENIX AZ
1200 AM MST SUN APR 30 2017

NOTE: FAIR INDICATES FEW OR NO CLOUDS BELOW 12,000 FEET WITH NO
SIGNIFICANT WEATHER AND/OR OBSTRUCTIONS TO VISIBILITY.

AZZ001>003-036-300800-
NORTHWEST ARIZONA

CITY           SKY/WX    TMP DP  RH WIND       PRES   REMARKS
BULLHEAD CITY  CLEAR     70  14  11 CALM      30.04R
KINGMAN        CLEAR     49  15  25 CALM      30.14R
$$

AZZ004>008-015-016-018-300800-
NORTH CENTRAL ARIZONA

CITY           SKY/WX    TMP DP  RH WIND       PRES   REMARKS
GRAND CANYON   CLEAR     28  13  53 NE5       30.20S WCI  23
WILLIAMS       CLEAR     37  14  38 VRB3      30.20S
PRESCOTT       CLEAR     43  21  41 S3        30.16R
FLAGSTAFF      CLEAR     28  11  48 SW3       30.19R
PAYSON         CLEAR     45  12  26 CALM      30.17R
PAGE           CLEAR     53  19  26 W6        30.14R
$$

AZZ009>014-017-300800-
NORTHEAST ARIZONA

CITY           SKY/WX    TMP DP  RH WIND       PRES   REMARKS
WINSLOW        CLEAR     39  13  34 W8        30.15R WCI  33
SAINT JOHNS    CLEAR     36  28  73 SW6       30.12R WCI  31
WINDOW ROCK    CLEAR     28  22  78 CALM      30.11S
SHOW LOW       CLEAR     32  16  51 SW3       30.17R
$$

AZZ540-542>544-546-548-300800-
GREATER PHOENIX AREA

CITY           SKY/WX    TMP DP  RH WIND       PRES   REMARKS
PHOENIX        CLEAR     67  26  21 E3        29.97R
BUCKEYE        CLEAR     68  12  11 NW13      29.99R
LUKE AFB       CLEAR     65  22  19 NW10      29.98R
DEER VALLEY    CLEAR     65  20  17 NE8       29.99R
SCOTTSDALE     CLEAR     67  22  18 N3        30.00R
MESA-GATEWAY   CLEAR     61  21  21 E8        30.00S
$$

AZZ539-553-300800-
SOUTHWEST MARICOPA COUNTY AND PINAL COUNTY

CITY           SKY/WX    TMP DP  RH WIND       PRES   REMARKS
CASA GRANDE    CLEAR     61  20  20 W7        30.00R
GILA BEND      FAIR      65  16  15 S10       29.98R
$$

AZZ503-504-507>509-300800-
SOUTHEAST ARIZONA

CITY           SKY/WX    TMP DP  RH WIND       PRES   REMARKS
TUCSON         CLEAR     57  15  19 SE6       30.09R
DAVIS-MONTHAN  CLEAR     54  16  22 SE7       30.08R
NOGALES        CLEAR     47  13  25 NE3       30.11R
SIERRA VISTA   CLEAR     50  13  22 W8        30.14R
DOUGLAS        CLEAR     47  12  24 N9        30.12R
SAFFORD        CLEAR     51  28  41 SE5       30.06R
$$

AZZ532-300800-
SOUTHWEST ARIZONA

CITY           SKY/WX    TMP DP  RH WIND       PRES   REMARKS
YUMA           CLEAR     67  26  21 SW3       30.00R
$$

CAZ041-043-047-048-061-525>527-560>570-300800-
SOUTHERN CALIFORNIA

CITY           SKY/WX    TMP DP  RH WIND       PRES   REMARKS
DOWNTOWN L.A.  CLEAR     65  44  46 CALM      30.04R
L.A. AIRPORT   CLEAR     63  45  51 S5        30.05R
SAN DIEGO      CLEAR     67  36  31 NE5       30.07F
BURBANK        CLEAR     64  25  22 NW7       30.05S
ONTARIO        CLEAR     62  28  27 CALM      30.07R
RIVERSIDE      CLEAR     60  31  33 E3        30.08R
PALM SPRINGS   CLEAR     71  16  12 N9        30.06R
EL CENTRO NAS  CLEAR     63  20  19 W8        30.02R
IMPERIAL       CLEAR     63  29  27 W6        30.00R
BLYTHE         CLEAR     69  16  13 NW5       30.01S
NEEDLES        CLEAR     71  14  11 CALM      30.04R
$$

NVZ020-UTZ003-300800-
SOUTHERN NEVADA-UTAH

CITY           SKY/WX    TMP DP  RH WIND       PRES   REMARKS
LAS VEGAS      CLEAR     66  13  12 N12       30.10R
SALT LAKE CITY PTCLDY    44  28  53 S8        30.20F
$$

NMZ009-TXZ055-300800-
NEW MEXICO-WEST TEXAS

CITY           SKY/WX    TMP DP  RH WIND       PRES   REMARKS
ALBUQUERQUE    CLOUDY    36  35  96 SW7       30.08S WCI  30
EL PASO        PTCLDY    47  32  56 N7        30.07R
$$


........................KEY........................
SKY/WX - SKY CONDITION/WEATHER
TMP    - TEMPERATURE IN FAHRENHEIT
DP     - DEW POINT IN FAHRENHEIT
RH     - RELATIVE HUMIDITY IN PERCENT
WIND   - DIRECTION AND SPEED IN MILES PER HOUR (MPH)
VRB    - VARIABLE WIND DIRECTION
PRES   - MEAN SEA LEVEL PRESSURE IN INCHES OF MERCURY
         F - FALLING PRESSURE   R - RISING PRESSURE
         S - STEADY PRESSURE
VSB    - VISIBILITY IN MILES
HX     - HEAT INDEX IN FAHRENHEIT
WCI    - WIND CHILL INDEX IN FAHRENHEIT
TC     - TEMPERATURE IN CELSIUS WHICH IS ALSO KNOWN AS
         TEMPERATURE IN CENTIGRADE
AFB    - AIR FORCE BASE
         LUKE AFB IS LUKE AIR FORCE BASE
         DAVIS-MONTHAN IS DAVIS-MONTHAN AIR FORCE BASE
NAS    - NAVAL AIR STATION
         EL CENTRO NAS IS EL CENTRO NAVAL AIR STATION
N/A    - NOT AVAILABLE





USA.gov is the U.S. government's official web portal to all federal, state and local government web resources and services.